Location: Sungai Bunut
(2.6333°N, 113.7333°E)
Time: 15:55:26
(UTC+00:00)

Altair - Pass Details

Date: 06 December 2023
Orbit: 1501 x 1682 km, 47.2° (Epoch: 24 February)

Event Time Altitude Azimuth Distance (km) Brightness Sun altitude
Rises 22:07:12 0° 234° (SW) 4,929 9.8 -3.1°
Reaches altitude 10° 22:10:34 10° 240° (WSW) 3,932 9.3 -2.3°
Maximum altitude 22:20:03 46° 310° (NW) 2,098 7.9 -0.1°
Drops below altitude 10° 22:29:19 10° 21° (NNE) 3,819 9.6 2.0°
Sets 22:32:34 0° 28° (NNE) 4,778 10.2 2.8°
